Zurück zum Katalog

STARLINK-30141

AktivKommunikationVLEO
NORAD 57620·PAYLOAD·🇺🇸 United States

Gestartet Aug 11, 2023 von Cape Canaveral Space Force Station

Loading…

Nächste Überflüge (nächste 24 Stunden)

TLE

AktuellSource: CelesTrak SupGP

Epoche: Sep 14, 2026, 22:25 UTC

1 57620C 23119U   26257.93451389  .00023072  00000+0  83582-3 0  2579
2 57620  43.0000  92.7214 0001474 275.9042 319.0130 15.27561355    17

Verfolge STARLINK-30141 in Echtzeit mit AllMySat

Download on the App Store